Location: Asheville, NC
(35.6000°N, 82.5500°W)
Time: 03:05:58
(UTC-04:00)

XW-2D - Pass Details

Date: 17 February 2018
Orbit: 509 x 531 km, 97.5° (Epoch: 25 May)

Event Time Altitude Azimuth Distance (km) Brightness Sun altitude
Rises 05:29:32 0° 36° (NE) 2,626 ? -22.0°
Reaches altitude 10° 05:32:41 10° 66° (ENE) 1,738 ? -21.4°
Maximum altitude 05:34:24 13° 93° (E) 1,571 ? -21.0°
Drops below altitude 10° 05:36:07 10° 121° (ESE) 1,737 ? -20.7°
Sets 05:39:15 0° 150° (SSE) 2,624 ? -20.0°
